• In Hungary
  • List of Countries
  • For 7 days
  • Water Temperature
  • Satellite Maps
  • Weather Map
  • News
  • Weather Widgets
  • user-avatar
    Login

    Hourly Weather Ostrowki

    Today, 21 October, Sunday

    Time Temperature Precipitation Wind Pressure Humidity
    00:00 +8°C° 0 mm 2 mps 761 mmHg 89%
    01:00 +7°C° 0 mm 2 mps 761 mmHg 92%
    02:00 +8°C° 0 mm 1 mps 761 mmHg 93%
    03:00 +8°C° 0 mm 1 mps 761 mmHg 94%
    04:00 +8°C° 0 mm 1 mps 761 mmHg 95%
    05:00 +7°C° 0 mm 1 mps 762 mmHg 95%
    06:00 +7°C° 0 mm 1 mps 762 mmHg 95%
    07:00 +7°C° 0 mm 1 mps 762 mmHg 95%
    08:00 +9°C° 0 mm 1 mps 762 mmHg 89%
    09:00 +11°C° 0 mm 1 mps 763 mmHg 82%
    10:00 +12°C° 0 mm 1 mps 763 mmHg 75%
    11:00 +13°C° 0 mm 1 mps 763 mmHg 70%
    12:00 +14°C° 0 mm 1 mps 763 mmHg 65%
    13:00 +15°C° 0 mm 1 mps 763 mmHg 60%
    14:00 +14°C° 0 mm 1 mps 762 mmHg 62%
    15:00 +14°C° 0 mm 1 mps 762 mmHg 63%
    16:00 +13°C° 0 mm 1 mps 762 mmHg 64%
    17:00 +12°C° 0 mm 1 mps 762 mmHg 69%
    18:00 +11°C° 0 mm 1 mps 762 mmHg 73%
    19:00 +10°C° 0 mm 1 mps 762 mmHg 78%
    20:00 +9°C° 0 mm 2 mps 762 mmHg 80%
    21:00 +8°C° 0 mm 2 mps 762 mmHg 81%
    22:00 +8°C° 0 mm 2 mps 762 mmHg 83%
    23:00 +8°C° 0 mm 2 mps 762 mmHg 85%

    Tomorrow, 22 October, Monday

    Time Temperature Precipitation Wind Pressure Humidity
    00:00 +7°C° 0 mm 2 mps 762 mmHg 87%
    01:00 +7°C° 0 mm 2 mps 762 mmHg 88%
    02:00 +7°C° 0 mm 2 mps 761 mmHg 89%
    03:00 +6°C° 0 mm 2 mps 761 mmHg 90%
    04:00 +6°C° 0 mm 2 mps 761 mmHg 91%
    05:00 +6°C° 0 mm 2 mps 761 mmHg 92%
    06:00 +6°C° 0 mm 2 mps 761 mmHg 93%
    07:00 +5°C° 0 mm 3 mps 760 mmHg 93%
    08:00 +7°C° 0 mm 3 mps 760 mmHg 86%
    09:00 +9°C° 0 mm 3 mps 760 mmHg 79%
    10:00 +10°C° 0 mm 4 mps 760 mmHg 73%
    11:00 +10°C° 0.2 mm 4 mps 760 mmHg 74%
    12:00 +10°C° 0.2 mm 4 mps 760 mmHg 75%
    13:00 +11°C° 0.2 mm 4 mps 759 mmHg 76%
    14:00 +10°C° 0.3 mm 4 mps 760 mmHg 79%
    15:00 +10°C° 0.3 mm 4 mps 760 mmHg 82%
    16:00 +8°C° 0.3 mm 4 mps 760 mmHg 85%
    17:00 +8°C° 0.1 mm 4 mps 760 mmHg 84%
    18:00 +8°C° 0.1 mm 3 mps 760 mmHg 84%
    19:00 +7°C° 0.1 mm 3 mps 761 mmHg 83%
    20:00 +7°C° 0 mm 3 mps 761 mmHg 84%
    21:00 +5°C° 0 mm 3 mps 761 mmHg 84%
    22:00 +5°C° 0 mm 3 mps 761 mmHg 85%
    23:00 +5°C° 0 mm 3 mps 761 mmHg 85%

    Day after tomorrow, 23 October, Tuesday

    Time Temperature Precipitation Wind Pressure Humidity
    00:00 +4°C° 0 mm 3 mps 761 mmHg 86%
    01:00 +4°C° 0 mm 3 mps 761 mmHg 86%
    02:00 +4°C° 0 mm 3 mps 761 mmHg 86%
    03:00 +4°C° 0 mm 4 mps 760 mmHg 87%
    04:00 +3°C° 0 mm 4 mps 759 mmHg 87%
    05:00 +4°C° 0 mm 4 mps 759 mmHg 85%
    06:00 +3°C° 0 mm 5 mps 758 mmHg 84%
    07:00 +3°C° 0 mm 6 mps 757 mmHg 82%
    08:00 +4°C° 0.2 mm 7 mps 756 mmHg 80%
    09:00 +5°C° 0.2 mm 8 mps 755 mmHg 77%
    10:00 +5°C° 0.2 mm 9 mps 754 mmHg 74%
    11:00 +6°C° 0.6 mm 9 mps 753 mmHg 76%
    12:00 +6°C° 0.6 mm 10 mps 751 mmHg 78%
    13:00 +6°C° 0.6 mm 10 mps 750 mmHg 80%
    14:00 +6°C° 1 mm 10 mps 749 mmHg 81%
    15:00 +6°C° 1 mm 10 mps 747 mmHg 82%
    16:00 +7°C° 1 mm 11 mps 746 mmHg 83%
    17:00 +8°C° 1.4 mm 11 mps 745 mmHg 83%
    18:00 +8°C° 1.4 mm 11 mps 744 mmHg 83%
    19:00 +9°C° 1.4 mm 11 mps 743 mmHg 84%
    20:00 +9°C° 1 mm 10 mps 742 mmHg 81%
    21:00 +9°C° 1 mm 10 mps 742 mmHg 78%
    22:00 +10°C° 1 mm 9 mps 742 mmHg 75%
    23:00 +8°C° 0.1 mm 9 mps 742 mmHg 73%

    24 October, Wednesday

    Time Temperature Precipitation Wind Pressure Humidity
    00:00 +7°C° 0.1 mm 9 mps 743 mmHg 70%
    01:00 +7°C° 0.1 mm 9 mps 743 mmHg 68%
    02:00 +6°C° 0.1 mm 9 mps 743 mmHg 68%
    03:00 +6°C° 0.1 mm 8 mps 744 mmHg 68%
    04:00 +5°C° 0.1 mm 8 mps 745 mmHg 68%
    05:00 +5°C° 0.1 mm 7 mps 745 mmHg 66%
    06:00 +4°C° 0.1 mm 7 mps 746 mmHg 64%
    07:00 +3°C° 0.1 mm 6 mps 747 mmHg 62%
    08:00 +4°C° 0 mm 7 mps 747 mmHg 56%
    09:00 +5°C° 0 mm 8 mps 748 mmHg 51%
    10:00 +6°C° 0 mm 9 mps 748 mmHg 45%
    11:00 +6°C° 0 mm 9 mps 748 mmHg 43%
    12:00 +7°C° 0 mm 9 mps 749 mmHg 42%
    13:00 +7°C° 0 mm 9 mps 749 mmHg 40%
    14:00 +7°C° 0 mm 8 mps 749 mmHg 42%
    15:00 +6°C° 0 mm 7 mps 750 mmHg 44%
    16:00 +7°C° 0 mm 6 mps 750 mmHg 47%
    17:00 +5°C° 0 mm 6 mps 750 mmHg 50%
    18:00 +5°C° 0 mm 5 mps 751 mmHg 53%
    19:00 +5°C° 0 mm 5 mps 751 mmHg 56%
    20:00 +3°C° 0 mm 5 mps 752 mmHg 58%
    21:00 +3°C° 0 mm 5 mps 752 mmHg 60%
    22:00 +4°C° 0 mm 4 mps 752 mmHg 62%
    23:00 +4°C° 0 mm 4 mps 752 mmHg 63%

    25 October, Thursday

    Time Temperature Precipitation Wind Pressure Humidity
    00:00 +3°C° 0 mm 4 mps 752 mmHg 65%
    01:00 +3°C° 0 mm 4 mps 752 mmHg 67%
    02:00 +2°C° 0 mm 5 mps 752 mmHg 69%
    03:00 +2°C° 0 mm 5 mps 752 mmHg 70%
    04:00 +2°C° 0 mm 5 mps 752 mmHg 72%
    05:00 +3°C° 0.1 mm 5 mps 751 mmHg 76%
    06:00 +3°C° 0.1 mm 5 mps 751 mmHg 80%
    07:00 +3°C° 0.1 mm 5 mps 750 mmHg 84%
    08:00 +5°C° 0.2 mm 6 mps 750 mmHg 85%
    09:00 +7°C° 0.2 mm 6 mps 749 mmHg 87%
    10:00 +8°C° 0.2 mm 7 mps 749 mmHg 89%
    11:00 +9°C° 0.1 mm 7 mps 748 mmHg 82%
    12:00 +10°C° 0.1 mm 8 mps 748 mmHg 76%
    13:00 +10°C° 0.1 mm 9 mps 747 mmHg 70%
    14:00 +10°C° 0.1 mm 9 mps 747 mmHg 72%
    15:00 +10°C° 0.1 mm 8 mps 747 mmHg 75%
    16:00 +9°C° 0.1 mm 8 mps 746 mmHg 77%
    17:00 +10°C° 0.1 mm 8 mps 746 mmHg 77%
    18:00 +10°C° 0.1 mm 8 mps 746 mmHg 78%
    19:00 +10°C° 0.1 mm 8 mps 746 mmHg 78%
    20:00 +10°C° 0.1 mm 8 mps 746 mmHg 77%
    21:00 +10°C° 0.1 mm 8 mps 746 mmHg 76%
    22:00 +9°C° 0.1 mm 7 mps 747 mmHg 74%
    23:00 +9°C° 0.1 mm 7 mps 747 mmHg 76%

    26 October, Friday

    Time Temperature Precipitation Wind Pressure Humidity
    00:00 +8°C° 0.1 mm 6 mps 747 mmHg 78%
    01:00 +8°C° 0.1 mm 5 mps 747 mmHg 80%
    02:00 +8°C° 0.2 mm 5 mps 747 mmHg 81%
    03:00 +8°C° 0.2 mm 4 mps 747 mmHg 82%
    04:00 +8°C° 0.2 mm 4 mps 747 mmHg 83%
    05:00 +8°C° 0.2 mm 4 mps 747 mmHg 85%
    06:00 +7°C° 0.2 mm 4 mps 747 mmHg 87%
    07:00 +7°C° 0.2 mm 4 mps 747 mmHg 88%
    08:00 +8°C° 0.3 mm 4 mps 747 mmHg 87%
    09:00 +8°C° 0.3 mm 4 mps 747 mmHg 86%
    10:00 +9°C° 0.3 mm 5 mps 747 mmHg 85%
    11:00 +9°C° 0.2 mm 5 mps 746 mmHg 83%
    12:00 +9°C° 0.2 mm 5 mps 746 mmHg 82%
    13:00 +9°C° 0.2 mm 6 mps 746 mmHg 80%
    14:00 +9°C° 0.1 mm 5 mps 745 mmHg 79%
    15:00 +9°C° 0.1 mm 5 mps 745 mmHg 78%
    16:00 +9°C° 0.1 mm 5 mps 744 mmHg 77%
    17:00 +8°C° 0.1 mm 5 mps 744 mmHg 78%
    18:00 +8°C° 0.1 mm 5 mps 744 mmHg 80%
    19:00 +7°C° 0.1 mm 5 mps 743 mmHg 81%
    20:00 +7°C° 0 mm 5 mps 743 mmHg 83%
    21:00 +7°C° 0 mm 5 mps 743 mmHg 85%
    22:00 +7°C° 0 mm 5 mps 742 mmHg 86%
    23:00 +7°C° 0 mm 5 mps 742 mmHg 87%
    Show more